Regional Weather Roundup
Issued by NWS

Home | Current Version | Previous Version | Graphics & Text | Print | Product List | Glossary On
Versions: 1 2 3 4 5 6 7 8 9 10 11 12 13 14 15 16 17 18 19 20 21 22 23 24 25 26 27 28 29 30 31 32 33 34 35 36 37 38 39 40 41 42 43 44 45 46 47 48 49 50
000
ASUS45 KCYS 061310
RWRWY

WYOMING REGIONAL WEATHER ROUNDUP
NATIONAL WEATHER SERVICE CHEYENNE WY
600 AM MST TUE DEC 06 2016

NOTE:  "FAIR" INDICATES FEW OR NO CLOUDS BELOW 12,000 FEET
WITH NO SIGNIFICANT WEATHER AND/OR OBSTRUCTIONS TO VISIBILITY.

WYZ001-061400-
YELLOWSTONE NATIONAL PARK

CITY           SKY/WX    TMP DP  RH WIND       PRES   REMARKS
LK YELLOWSTONE   N/A     -4  -7  87 NW3       29.78F
W YELLOWSTONE  NOT AVBL

$$
WYZ002>013-054>058-071-098>099-061400-
NORTHERN WYOMING

CITY           SKY/WX    TMP DP  RH WIND       PRES   REMARKS
JACKSON        FAIR     -20 -24  83 NE6       29.90S WCI -36
CODY           FAIR      -1  -5  82 S3        29.92S
GREYBULL       FAIR       6   1  80 NE3       29.99R
WORLAND        FAIR       1  -3  83 CALM      29.97R
SHERIDAN       FLURRIES   3  -1  83 W7        30.01S WCI  -9
BUFFALO        FLURRIES   6   1  80 NW5       29.94R WCI  -3
GILLETTE       FAIR      -1  -4  87 W6        29.96S WCI -13
HULETT         FLURRIES   5   1  85 W6        29.96S WCI  -6
NEWCASTLE      FAIR       5   0  78 N13G18    29.97S WCI -12

$$
WYZ014>020-022>026-101>103-061400-
CENTRAL WYOMING

CITY           SKY/WX    TMP DP  RH WIND       PRES   REMARKS
BIG PINEY      FAIR     -20 -24  82 N3        29.88S
PINEDALE       FAIR     -22 -27  76 W7        29.88S WCI -39
DUBOIS         FAIR      -6 -15  65 MISG      29.80R
LANDER         FAIR       2 -11  54 CALM      29.89R
RIVERTON       FAIR       4  -7  60 W3        29.90R
CASPER         FAIR      -4 -10  75 W9        29.90S WCI -20
DOUGLAS        FAIR      -8 -14  74 NW5       29.92S WCI -19

$$
WYZ021-027>030-104>119-061400-
SOUTHERN WYOMING

CITY           SKY/WX    TMP DP  RH WIND       PRES   REMARKS
EVANSTON       FAIR       4 -15  41 E8        29.80F WCI  -9
KEMMERER         N/A     -9 -17  70 N12       29.82F WCI -29
FORT BRIDGER   FAIR       1 -14  50 CALM      29.86S
ROCK SPRINGS   FAIR      -1  -9  68 S3        29.86F
DIXON          FAIR      -1 -11  62 E3        29.94S
RAWLINS        FAIR      -2 -12  62 S7        29.87R WCI -15
SARATOGA       FAIR       0 -11  60 S12       29.87S WCI -18
LARAMIE        FAIR      -4 -14  62 SE8       29.83S WCI -19
CHEYENNE       FAIR       8 -12  39 W16       29.87R WCI -10
TORRINGTON     FAIR       7   1  76 SW5       29.95S WCI  -2
PINE BLUFFS    FAIR       9  -4  56 MISG      29.94S

$$



USA.gov is the U.S. government's official web portal to all federal, state and local government web resources and services.